[[{"header":{"parameterUnit":"m.s-1","parameterCategory":1,"la1":30.2991,"la2":30.254,"lo1":-89.0895,"lo2":-89.0444,"dy":0.0017,"dx":0.0017,"nx":28,"ny":28,"refTime":"2024-04-03T03:00:00:Z","depth":0,"parameterNumber":2,"parameterNumberName":"U-component_of_WINDS"},"data":[0,0,0,0,0,0,0,0,0,0,0,0,0,0,0,0,0,0,0,0,0,0,0,0,0,0,0,0,0,0,0,0,0,0,0,0,0,0,0,0,0,0,0,0,0,0,0,0,0,0,0,0,0,0,0,0,0,0,5.5801,5.5802,0,5.5888,5.5889,5.589,5.5876,5.5875,5.5873,5.5872,5.5962,5.5965,5.5969,0,0,0,0,0,0,0,0,0,0,0,0,0,5.5624,5.5627,5.5801,5.5802,5.5803,5.5888,5.589,5.5891,5.5876,5.5875,5.5873,5.5871,5.596,5.5965,5.597,0,0,0,0,0,0,0,0,0,0,0,0,0,5.5705,5.5628,5.5801,5.5806,5.5808,5.5888,5.589,5.5891,5.5877,5.5874,5.5872,5.587,5.5959,5.5965,5.597,5.6051,0,0,5.5988,5.599,0,0,0,0,0,0,0,0,5.57,5.5712,5.5804,5.5806,5.5808,5.5869,5.586,5.5945,5.5877,5.5851,5.5872,5.5869,5.5933,5.594,5.5962,5.6055,5.6059,5.5988,5.5992,5.5994,5.5996,0,0,0,0,0,0,0,5.5695,5.5708,5.5836,5.5806,5.5808,5.5805,5.5814,5.5876,5.5903,5.5853,5.5852,5.5862,5.5933,5.5956,5.5964,5.606,5.5988,5.5993,5.5997,5.5999,5.6227,5.6229,0,0,0,0,0,0,5.5687,5.5703,5.5833,5.5838,5.5747,5.581,5.582,5.5852,5.5903,5.5908,5.5864,5.5861,5.5948,5.5957,5.5967,5.6066,5.5994,5.5999,5.6003,5.6224,5.6227,5.623,0,0,0,0,0,0,5.5684,5.5699,5.5829,5.5771,5.5787,5.5816,5.5851,5.5855,5.5878,5.5911,5.5916,5.5883,5.5946,5.5959,5.6031,5.6069,5.6002,5.6007,5.6221,5.6225,5.6229,5.6265,0,0,0,0,0,0,5.5679,5.5698,5.5728,5.5771,5.579,5.5891,5.5853,5.5858,5.5888,5.5885,5.593,5.5935,5.5946,5.6022,5.6036,5.6076,5.6012,5.6217,5.6223,5.6227,5.626,5.627,5.6278,0,0,0,0,0,5.5672,5.5735,5.573,5.5745,5.5829,5.5893,5.5904,5.5914,5.5891,5.5922,5.5944,5.5934,5.6063,5.603,5.6045,5.6087,5.6215,5.6221,5.6227,5.6257,5.6268,5.6277,0,0,0,0,0,0,5.5695,5.574,5.5735,5.5813,5.585,5.5891,5.593,5.5925,5.5969,5.5965,5.5976,5.5986,5.6059,5.608,5.6043,5.6169,5.6136,5.6145,5.6153,5.6164,5.6172,5.6166,5.6016,0,0,0,0,0,5.5709,5.5757,5.5794,5.5859,5.5878,5.5901,5.593,5.5935,5.5973,5.5988,5.6015,5.6053,5.6102,5.6134,5.6181,5.6263,5.6274,5.63,5.6309,5.6316,5.6324,5.6371,5.6384,5.6249,5.6249,5.6249,0,0,5.5738,5.5769,5.5799,5.5865,5.5893,5.5944,5.5914,5.5968,5.6006,5.5996,5.6066,5.6087,5.613,5.6208,5.6244,5.6228,5.6363,5.6323,5.6328,5.6333,5.6379,5.6391,5.6403,5.6253,5.6253,5.6252,0,0,5.5818,5.5845,5.5904,5.5934,5.5978,5.5993,5.6007,5.6049,5.6063,5.6134,5.6128,5.6173,5.6257,5.6289,5.6316,5.641,5.6403,5.6425,5.647,5.6516,5.6527,5.6536,5.6571,5.6583,5.6433,5.6433,5.6433,0,5.5849,5.5925,5.5934,5.599,5.602,5.6014,5.6074,5.6102,5.6159,5.6181,5.6162,5.6269,5.6297,5.6383,5.6407,5.6428,5.6446,5.642,5.6524,5.6534,5.6543,5.6576,5.6589,5.6435,5.6435,5.6435,5.6435,0,5.5962,5.6014,5.6056,5.6113,5.6147,5.6205,5.6224,5.6258,5.6261,5.6278,5.6351,5.6385,5.644,5.6461,5.6463,5.6548,5.6537,5.6521,5.6488,5.6558,5.659,5.6603,5.6439,5.6438,5.6437,5.6437,0,0,5.6057,5.6119,5.6135,5.6161,5.621,5.6251,5.6309,5.6363,5.6393,5.6433,5.6483,5.6555,5.6542,5.6572,5.6578,5.6619,5.6694,5.6598,5.66,5.6616,5.6792,5.6804,5.6819,5.6689,5.6692,5.6694,5.6788,0,5.6143,5.6245,5.6257,5.6348,5.6398,5.6394,5.6445,5.6481,5.6499,5.6545,5.6565,5.6617,5.6594,5.6613,5.6653,5.6676,5.6729,5.6669,5.6737,5.6739,5.6727,5.6835,5.6848,5.6936,5.6801,5.6803,5.6804,0,5.6256,5.63,5.6397,5.6441,5.6463,5.6508,5.6559,5.6603,5.6644,5.6655,5.669,5.6692,5.6753,5.6717,5.6803,5.6762,5.679,5.6806,5.681,5.6817,5.6777,5.6847,5.6964,5.6977,5.6824,5.6822,5.6821,0,5.6318,5.6402,5.6471,5.6494,5.6546,5.6579,5.6602,5.6642,5.6674,5.6719,5.674,5.6792,5.682,5.686,5.6876,5.6848,5.6962,5.6927,5.6974,5.6974,5.6998,5.6997,5.7123,5.7015,5.7015,5.7014,5.7014,0,5.6413,5.6473,5.65,5.6543,5.661,5.6623,5.669,5.6712,5.6748,5.6795,5.6794,5.6839,5.6857,5.6906,5.6918,5.6988,5.7001,5.7012,5.7015,5.7013,5.7012,5.7032,5.7027,5.7018,5.7017,5.7016,5.7016,0,5.6494,5.6515,5.659,5.6634,5.6647,5.6695,5.6733,5.6775,5.6793,5.6854,5.6869,5.6898,5.6955,5.6975,5.7044,5.7053,5.7134,5.7131,5.712,5.7121,5.7168,5.7164,5.7312,5.7333,5.721,5.7212,5.7213,0,5.6554,5.66,5.665,5.6682,5.6707,5.6758,5.6791,5.6806,5.6841,5.6893,5.6929,5.6986,5.7032,5.7124,5.7151,5.7205,5.7204,5.7252,5.7212,5.7209,5.7206,5.7204,5.7209,5.726,5.7261,5.7262,5.7263,0,5.6659,5.6667,5.6715,5.6767,5.6807,5.6849,5.6889,5.6915,5.6937,5.6976,5.7034,5.707,5.7141,5.7198,5.7253,5.7278,5.7275,5.7276,5.729,5.7289,5.7281,5.7287,5.7142,5.7272,5.7272,5.7271,5.727,5.727,5.6733,5.6774,5.6816,5.687,5.6902,5.694,5.6982,5.7006,5.7055,5.7114,5.712,5.7184,5.7226,5.7299,5.7327,5.7378,5.7364,5.7384,5.7389,5.7394,5.7399,5.7272,5.7387,5.7387,5.7387,5.7387,5.7387,0,5.6839,5.6866,5.6915,5.6972,5.7015,5.7008,5.7053,5.7089,5.7145,5.7185,5.723,5.7299,5.7354,5.7387,5.7443,5.7477,5.7477,5.7491,5.7489,5.7496,5.7406,5.7389,5.749,5.749,5.749,5.749,5.749,5.749,5.6899,5.697,5.6983,5.707,5.7097,5.7159,5.7185,5.7221,5.7253,5.7329,5.7375,5.7396,5.7433,5.7492,5.7544,5.7552,5.7573,5.7589,5.7596,5.7512,5.7502,5.7491,5.7476,5.7593,5.7593,5.7681,5.7682,5.7683]},{"header":{"parameterUnit":"m.s-1","parameterCategory":1,"la1":30.2991,"la2":30.254,"lo1":-89.0895,"lo2":-89.0444,"dy":0.0017,"dx":0.0017,"nx":28,"ny":28,"refTime":"2024-04-03T03:00:00:Z","depth":0,"parameterNumber":3,"parameterNumberName":"V-component_of_WINDS"},"data":[0,0,0,0,0,0,0,0,0,0,0,0,0,0,0,0,0,0,0,0,0,0,0,0,0,0,0,0,0,0,0,0,0,0,0,0,0,0,0,0,0,0,0,0,0,0,0,0,0,0,0,0,0,0,0,0,0,0,-1.6904,-1.6904,0,-1.6891,-1.6891,-1.6891,-1.6935,-1.6937,-1.6938,-1.6939,-1.6921,-1.692,-1.6918,0,0,0,0,0,0,0,0,0,0,0,0,0,-1.6965,-1.6964,-1.6904,-1.6904,-1.6904,-1.6891,-1.6891,-1.6891,-1.6935,-1.6937,-1.6938,-1.694,-1.6922,-1.692,-1.6918,0,0,0,0,0,0,0,0,0,0,0,0,0,-1.6944,-1.6963,-1.6904,-1.6925,-1.6926,-1.6891,-1.6891,-1.6891,-1.6935,-1.6937,-1.6939,-1.6941,-1.6922,-1.692,-1.6917,-1.686,0,0,-1.6909,-1.6908,0,0,0,0,0,0,0,0,-1.6945,-1.6941,-1.6922,-1.6923,-1.6925,-1.6917,-1.6906,-1.688,-1.6934,-1.6931,-1.6939,-1.6942,-1.6918,-1.6916,-1.6909,-1.6859,-1.6859,-1.6909,-1.6907,-1.6906,-1.6906,0,0,0,0,0,0,0,-1.6946,-1.6942,-1.6899,-1.6921,-1.6923,-1.6934,-1.6933,-1.6901,-1.6913,-1.6932,-1.6935,-1.6933,-1.6919,-1.6911,-1.6909,-1.6858,-1.6909,-1.6907,-1.6905,-1.6904,-1.6764,-1.6762,0,0,0,0,0,0,-1.6946,-1.6943,-1.6899,-1.6898,-1.694,-1.6931,-1.693,-1.6917,-1.6914,-1.6915,-1.6931,-1.6935,-1.6915,-1.6912,-1.6908,-1.6842,-1.6906,-1.6904,-1.6902,-1.6766,-1.6763,-1.6761,0,0,0,0,0,0,-1.6947,-1.6941,-1.69,-1.6922,-1.6917,-1.6928,-1.6913,-1.6916,-1.6908,-1.6913,-1.6915,-1.6921,-1.6916,-1.6912,-1.6873,-1.6842,-1.6903,-1.69,-1.6768,-1.6765,-1.6762,-1.6709,0,0,0,0,0,0,-1.6948,-1.6941,-1.692,-1.6921,-1.6916,-1.6865,-1.6911,-1.6914,-1.6904,-1.6909,-1.6904,-1.6905,-1.6917,-1.6876,-1.687,-1.684,-1.6898,-1.6771,-1.6767,-1.6763,-1.6714,-1.6705,-1.6697,0,0,0,0,0,-1.695,-1.6904,-1.6919,-1.6913,-1.689,-1.6863,-1.686,-1.6876,-1.6901,-1.688,-1.6884,-1.6906,-1.6847,-1.6872,-1.6865,-1.6834,-1.6773,-1.6768,-1.6763,-1.6718,-1.6706,-1.6697,0,0,0,0,0,0,-1.6897,-1.6905,-1.6921,-1.6874,-1.6868,-1.6871,-1.6844,-1.6863,-1.6849,-1.6854,-1.6873,-1.6871,-1.6829,-1.6827,-1.6855,-1.6779,-1.6814,-1.6808,-1.6782,-1.6771,-1.6763,-1.6764,-1.6896,0,0,0,0,0,-1.6881,-1.686,-1.6867,-1.6825,-1.6821,-1.6833,-1.6822,-1.6835,-1.6829,-1.6826,-1.6827,-1.6819,-1.6799,-1.6785,-1.6767,-1.6714,-1.6714,-1.6689,-1.6681,-1.6674,-1.6668,-1.6642,-1.6631,-1.6745,-1.6745,-1.6745,0,0,-1.6845,-1.6847,-1.6832,-1.6814,-1.6811,-1.6788,-1.683,-1.6804,-1.6787,-1.6821,-1.6785,-1.6786,-1.6778,-1.6733,-1.6713,-1.673,-1.6637,-1.6668,-1.6662,-1.666,-1.6636,-1.6625,-1.6615,-1.6742,-1.6742,-1.6743,0,0,-1.6769,-1.6768,-1.6734,-1.673,-1.6726,-1.6735,-1.6726,-1.6727,-1.6729,-1.6694,-1.672,-1.67,-1.6664,-1.6659,-1.6651,-1.6575,-1.6595,-1.6569,-1.6524,-1.6498,-1.6489,-1.6481,-1.6455,-1.6446,-1.6563,-1.6563,-1.6563,0,-1.6725,-1.6692,-1.6713,-1.6686,-1.6677,-1.671,-1.6676,-1.6671,-1.666,-1.6653,-1.6673,-1.6632,-1.6629,-1.6583,-1.6565,-1.6557,-1.6549,-1.6569,-1.6489,-1.6482,-1.6474,-1.645,-1.644,-1.656,-1.656,-1.656,-1.6561,0,-1.6639,-1.6616,-1.6589,-1.658,-1.6569,-1.6538,-1.6553,-1.6539,-1.6554,-1.6561,-1.6525,-1.6523,-1.6506,-1.6496,-1.6509,-1.6453,-1.6464,-1.6486,-1.6522,-1.646,-1.6437,-1.6428,-1.6555,-1.6556,-1.6557,-1.6558,0,0,-1.6527,-1.6532,-1.6522,-1.6519,-1.6518,-1.65,-1.6471,-1.6457,-1.6445,-1.6436,-1.6412,-1.6383,-1.6405,-1.6396,-1.6409,-1.6387,-1.6328,-1.6412,-1.6412,-1.6397,-1.6267,-1.625,-1.6239,-1.6342,-1.634,-1.6339,-1.6268,0,-1.6453,-1.6405,-1.6424,-1.6374,-1.6354,-1.6386,-1.636,-1.6356,-1.6362,-1.6345,-1.6351,-1.6331,-1.6361,-1.6356,-1.6335,-1.634,-1.6303,-1.6345,-1.6319,-1.6318,-1.632,-1.6227,-1.6209,-1.6142,-1.6259,-1.6258,-1.6257,0,-1.6359,-1.635,-1.6299,-1.6304,-1.6296,-1.6273,-1.6262,-1.6246,-1.6242,-1.6248,-1.624,-1.6258,-1.623,-1.6266,-1.6227,-1.6256,-1.6247,-1.6248,-1.6246,-1.6243,-1.6283,-1.6223,-1.6121,-1.6111,-1.6243,-1.6244,-1.6245,0,-1.6284,-1.6259,-1.6225,-1.6222,-1.6226,-1.6209,-1.621,-1.6209,-1.62,-1.619,-1.6184,-1.617,-1.6162,-1.6151,-1.6165,-1.619,-1.6124,-1.6161,-1.6128,-1.6128,-1.6112,-1.6113,-1.6008,-1.6106,-1.6106,-1.6107,-1.6107,0,-1.6199,-1.6167,-1.6192,-1.6171,-1.6136,-1.6158,-1.6122,-1.6126,-1.6125,-1.6106,-1.6132,-1.6113,-1.6133,-1.6116,-1.6127,-1.6094,-1.6089,-1.6093,-1.6097,-1.6091,-1.6091,-1.6085,-1.609,-1.6104,-1.6105,-1.6105,-1.6106,0,-1.6108,-1.6124,-1.609,-1.6098,-1.6099,-1.6073,-1.6079,-1.606,-1.6069,-1.6044,-1.6039,-1.6052,-1.6034,-1.6048,-1.6028,-1.6035,-1.5992,-1.6001,-1.5994,-1.5996,-1.5963,-1.5966,-1.585,-1.5836,-1.5943,-1.5942,-1.5941,0,-1.6053,-1.603,-1.6036,-1.6026,-1.6025,-1.6008,-1.6,-1.6021,-1.601,-1.6006,-1.5988,-1.5972,-1.596,-1.5929,-1.5936,-1.5922,-1.5931,-1.5892,-1.5929,-1.5925,-1.5931,-1.5933,-1.5931,-1.5884,-1.5883,-1.5882,-1.5881,0,-1.5954,-1.5964,-1.5951,-1.5942,-1.5932,-1.5925,-1.592,-1.5909,-1.5931,-1.5918,-1.5901,-1.5892,-1.5874,-1.5857,-1.5846,-1.5846,-1.5867,-1.5869,-1.5861,-1.5855,-1.5852,-1.5854,-1.5973,-1.5871,-1.5872,-1.5873,-1.5874,-1.5874,-1.588,-1.5861,-1.5863,-1.5849,-1.5848,-1.5843,-1.5827,-1.5835,-1.5821,-1.5809,-1.5822,-1.5801,-1.58,-1.5787,-1.5785,-1.5768,-1.5784,-1.5772,-1.5769,-1.5766,-1.5761,-1.5855,-1.5766,-1.5766,-1.5767,-1.5767,-1.5767,0,-1.5783,-1.5787,-1.5773,-1.5767,-1.5756,-1.5779,-1.5775,-1.5764,-1.5745,-1.5743,-1.5732,-1.5713,-1.5698,-1.5705,-1.5692,-1.5677,-1.5686,-1.5673,-1.5674,-1.5674,-1.5747,-1.5756,-1.5666,-1.5666,-1.5666,-1.5666,-1.5666,-1.5666,-1.5731,-1.5701,-1.5711,-1.5681,-1.5684,-1.5665,-1.5662,-1.5657,-1.5656,-1.5634,-1.5623,-1.5628,-1.563,-1.5618,-1.5605,-1.5608,-1.5601,-1.5585,-1.559,-1.5659,-1.5669,-1.5678,-1.5687,-1.5583,-1.5583,-1.5519,-1.5518,-1.5518]}]]